SP9KB-14 Weather Reports


time (UTC)temp
C
wind
direction
speed
KPH
gust
KPH
rain 1hr
cm
rain 24hr
cm
rain mn
cm
humidity
%
barometer
mb
20260508044356 9 175 0.0 0.0 0.00 1.37 0.00 99 1039.6
20260508043856 9 66 0.0 0.0 0.00 1.37 0.00 99 1039.6
20260508043355 9 190 0.0 0.0 0.00 1.37 0.00 99 1039.4
20260508042855 9 168 0.0 0.0 0.00 1.37 0.00 99 1039.3
20260508042354 9 78 1.6 1.6 0.00 1.37 0.00 99 1039.1
20260508041854 9 8 0.0 3.2 0.00 1.37 0.00 99 1039.1
20260508041353 9 127 0.0 1.6 0.00 1.37 0.00 99 1039.4
20260508040853 9 184 0.0 0.0 0.00 1.37 0.00 99 1039.5
20260508040352 9 153 0.0 0.0 0.00 1.37 0.00 99 1039.1
20260508035852 9 143 0.0 0.0 0.00 1.37 0.00 99 1039.3
20260508035351 10 149 0.0 0.0 0.00 1.37 0.00 99 1039.2
20260508034850 9 173 0.0 0.0 0.00 1.37 0.00 99 1039.0
20260508034350 9 174 0.0 0.0 0.00 1.37 0.00 99 1039.0
20260508033849 9 169 0.0 0.0 0.00 1.37 0.00 99 1039.4
20260508033349 9 169 0.0 0.0 0.00 1.37 0.00 99 1039.1
20260508032848 9 140 0.0 0.0 0.00 1.37 0.00 99 1039.1
20260508032348 10 190 0.0 0.0 0.00 1.37 0.00 99 1039.2
20260508031847 10 193 0.0 0.0 0.00 1.37 0.00 99 1039.1
20260508031347 10 180 0.0 0.0 0.13 1.37 0.00 99 1038.9
20260508030846 10 177 0.0 0.0 0.13 1.37 0.00 99 1039.0
20260508030346 10 179 0.0 0.0 0.00 1.35 0.00 99 1038.9
20260508025845 10 112 0.0 1.6 0.00 1.35 0.00 99 1038.8
20260508025344 10 175 0.0 0.0 0.18 1.35 0.00 99 1038.9
20260508024844 10 178 0.0 0.0 0.30 1.35 0.00 99 1038.7
20260508024343 10 185 0.0 0.0 0.13 1.32 0.00 99 1038.5
20260508023843 10 65 0.0 0.0 0.18 1.30 0.00 99 1038.6
20260508023342 10 176 0.0 0.0 0.30 1.30 0.00 99 1038.5
20260508022842 10 179 0.0 0.0 0.30 1.27 0.00 99 1038.4
20260508022341 10 186 0.0 0.0 0.18 1.24 0.00 99 1038.3
20260508021841 10 189 0.0 0.0 0.18 1.22 0.00 99 1038.4
20260508021340 10 221 1.6 1.6 0.30 1.19 0.00 99 1038.4
20260508020840 10 147 0.0 0.0 0.41 1.19 0.00 99 1038.5
20260508020339 10 153 0.0 0.0 0.13 1.14 0.00 99 1038.5
20260508015839 10 180 0.0 0.0 0.18 1.12 0.00 99 1038.6
20260508015338 10 181 0.0 0.0 0.30 1.12 0.00 99 1038.6
20260508014838 10 157 0.0 0.0 0.41 1.09 0.00 99 1038.5
20260508014337 10 165 0.0 0.0 1.09 1.07 0.00 99 1038.8
20260508013837 10 186 0.0 0.0 1.98 1.02 0.00 99 1038.8
20260508013336 10 147 0.0 0.0 1.68 0.86 0.00 99 1038.6
20260508012836 10 164 0.0 1.6 0.89 0.66 0.00 99 1038.7
20260508012335 10 249 0.0 1.6 0.30 0.56 0.00 99 1038.8
20260508011834 10 179 0.0 0.0 0.18 0.51 0.00 99 1038.8
20260508011334 10 179 0.0 0.0 0.18 0.51 0.00 99 1038.7
20260508010833 10 186 0.0 0.0 0.00 0.48 0.00 99 1038.7
20260508010333 10 215 1.6 1.6 0.13 0.48 0.00 99 1038.7
20260508005832 10 188 0.0 0.0 0.00 0.46 0.00 99 1038.7
20260508005332 10 208 0.0 0.0 0.18 0.46 0.00 99 1038.5
20260508004831 10 172 0.0 0.0 0.18 0.46 0.00 99 1038.5
20260508004331 10 168 0.0 0.0 0.00 0.43 0.00 99 1038.3
20260508003830 10 190 0.0 1.6 0.13 0.43 0.00 99 1038.5
20260508003329 10 255 0.0 1.6 0.30 0.43 0.00 99 1038.4
20260508002829 10 136 0.0 0.0 0.30 0.41 0.00 99 1038.2
20260508002328 10 224 1.6 1.6 0.30 0.38 0.00 99 1038.4
20260508001828 10 49 0.0 1.6 0.30 0.36 0.00 99 1038.1
20260508001327 10 183 0.0 0.0 0.30 0.33 0.00 99 1038.2
20260508000826 10 196 0.0 1.6 0.48 0.30 0.00 99 1038.2
20260508000327 10 184 0.0 0.0 0.61 0.28 0.00 99 1038.5
20260507235825 10 186 0.0 0.0 0.61 0.23 0.00 99 1038.1
20260507235325 11 176 0.0 0.0 0.79 0.18 0.00 99 1038.4
20260507234824 11 218 0.0 0.0 0.61 0.10 0.00 99 1038.2
20260507234324 11 212 0.0 0.0 0.30 0.05 0.00 99 1038.3
20260507233823 11 182 0.0 0.0 0.00 0.00 0.00 99 1038.3
20260507233323 11 194 0.0 0.0 0.00 0.00 0.00 99 1038.5
20260507232822 11 182 0.0 0.0 0.00 0.00 0.00 99 1038.3
20260507232322 11 189 0.0 0.0 0.00 0.00 0.00 99 1038.5
20260507231821 11 150 0.0 0.0 0.00 0.00 0.00 99 1038.5
20260507231321 11 163 0.0 0.0 0.00 0.00 0.00 99 1038.4
20260507230820 11 190 0.0 0.0 0.00 0.00 0.00 99 1038.2
20260507230319 11 164 0.0 0.0 0.00 0.00 0.00 99 1038.4
20260507225819 11 179 0.0 0.0 0.00 0.00 0.00 99 1038.2
20260507225318 11 190 0.0 0.0 0.00 0.00 0.00 99 1038.5
20260507224818 11 194 0.0 0.0 0.00 0.00 0.00 99 1038.4
20260507224317 11 178 0.0 0.0 0.00 0.00 0.00 99 1038.4
20260507223817 11 173 0.0 0.0 0.00 0.00 0.00 99 1038.3
20260507223316 11 159 0.0 0.0 0.00 0.00 0.00 99 1038.4
20260507222816 11 240 0.0 0.0 0.00 0.00 0.00 99 1038.5
20260507222315 11 226 0.0 0.0 0.00 0.00 0.00 99 1038.5
20260507221814 11 272 0.0 0.0 0.00 0.00 0.00 99 1038.3
20260507221314 11 155 0.0 0.0 0.00 0.00 0.00 99 1038.3
20260507220813 12 176 1.6 1.6 0.00 0.00 0.00 99 1038.3
20260507220313 12 159 0.0 0.0 0.13 0.00 0.00 99 1038.1
20260507215812 12 169 0.0 0.0 0.30 1.19 0.00 99 1038.2
20260507215312 12 187 0.0 1.6 0.18 1.17 0.00 99 1038.2
20260507214811 12 134 0.0 0.0 0.18 1.14 0.00 99 1037.9
20260507214310 12 135 0.0 1.6 0.18 1.14 0.00 99 1038.0
20260507213810 12 158 0.0 1.6 0.00 1.12 0.00 99 1038.1
20260507213309 12 197 0.0 0.0 0.00 1.12 0.00 99 1038.0
20260507212809 12 160 0.0 0.0 0.00 1.12 0.00 99 1038.2
20260507212308 12 155 0.0 0.0 0.00 1.12 0.00 99 1038.2
20260507211807 12 178 0.0 0.0 0.00 1.12 0.00 99 1038.1
20260507211307 12 168 0.0 0.0 0.00 1.12 0.00 99 1038.1
20260507210806 12 170 0.0 0.0 0.00 1.12 0.00 99 1038.0
20260507210306 12 161 0.0 0.0 0.00 1.12 0.00 99 1037.9
20260507205805 12 170 0.0 0.0 0.00 1.12 0.00 99 1038.1
20260507205306 12 156 0.0 0.0 0.00 1.12 0.00 99 1038.1
20260507204804 12 154 0.0 0.0 0.00 1.12 0.00 99 1037.8
20260507204303 12 155 0.0 0.0 0.00 1.12 0.00 99 1038.0
20260507203803 12 178 0.0 0.0 0.00 1.12 0.00 99 1037.9
20260507203302 12 125 0.0 1.6 0.00 1.12 0.00 99 1037.9
20260507202802 12 166 0.0 0.0 0.00 1.12 0.00 99 1037.3
20260507202301 12 176 0.0 0.0 0.00 1.12 0.00 99 1037.3
20260507201800 12 193 1.6 1.6 0.13 1.12 0.00 99 1037.1
20260507201300 12 175 0.0 0.0 0.30 1.12 0.00 99 1037.2
20260507200759 12 170 0.0 0.0 0.18 1.09 0.00 99 1037.2
20260507200259 12 125 1.6 1.6 0.13 1.07 0.00 99 1037.3
20260507195758 12 52 1.6 3.2 0.30 1.07 0.00 99 1037.2
20260507195257 12 162 0.0 0.0 0.00 1.02 0.00 99 1037.3
20260507194757 12 168 0.0 0.0 0.13 1.02 0.00 99 1037.5
20260507194256 12 148 0.0 1.6 0.13 1.02 0.00 99 1037.9
20260507193756 12 171 0.0 0.0 0.00 0.99 0.00 98 1037.5
20260507193255 12 228 0.0 0.0 0.00 0.99 0.00 98 1037.6
20260507192754 12 234 0.0 0.0 0.00 0.99 0.00 98 1037.4
20260507192254 12 235 0.0 0.0 0.00 0.99 0.00 98 1037.5
20260507191753 12 236 0.0 0.0 0.00 0.99 0.00 98 1037.3
20260507191253 12 236 0.0 0.0 0.00 0.99 0.00 98 1037.1
20260507190752 12 89 0.0 1.6 0.00 0.99 0.00 98 1036.8
20260507190252 12 180 0.0 0.0 0.00 0.99 0.00 98 1036.6
20260507185751 12 47 1.6 3.2 0.00 0.99 0.00 98 1036.7
20260507185250 12 186 0.0 0.0 0.00 0.99 0.00 98 1036.5
20260507184750 12 80 1.6 1.6 0.00 0.99 0.00 98 1036.5
20260507184249 12 175 0.0 0.0 0.00 0.99 0.00 97 1036.5
20260507183749 12 100 1.6 1.6 0.00 0.99 0.00 97 1036.6
20260507183248 12 180 0.0 0.0 0.00 0.99 0.00 97 1036.5
20260507182747 12 36 1.6 3.2 0.18 0.99 0.00 97 1036.7
20260507182247 12 56 4.8 6.4 0.61 0.99 0.00 97 1036.6
20260507181746 12 79 1.6 1.6 0.48 0.94 0.00 97 1036.7
20260507181246 12 133 1.6 1.6 0.79 0.89 0.00 96 1036.4
20260507180745 12 157 0.0 0.0 1.09 0.86 0.00 96 1036.4
20260507180244 12 140 1.6 3.2 1.09 0.76 0.00 96 1036.5
20260507175744 12 162 1.6 1.6 1.68 0.69 0.00 96 1036.2
20260507175243 12 78 4.8 6.4 1.37 0.58 0.00 96 1036.0
20260507174742 12 39 6.4 8.0 0.30 0.41 0.00 96 1036.0
20260507174242 13 196 0.0 1.6 0.00 0.36 0.00 96 1035.9
20260507173741 13 318 1.6 3.2 0.00 0.36 0.00 96 1035.6
20260507173241 13 298 1.6 1.6 0.00 0.36 0.00 96 1035.7
20260507172740 13 164 1.6 1.6 0.00 0.36 0.00 95 1035.3
20260507172240 13 113 0.0 1.6 0.13 0.36 0.00 95 1035.2
20260507171739 13 186 1.6 1.6 0.30 0.36 0.00 95 1035.0
20260507171238 13 120 0.0 0.0 0.48 0.33 0.00 95 1035.2
20260507170738 13 43 1.6 3.2 0.41 0.30 0.00 94 1034.9
20260507170237 13 40 3.2 3.2 0.30 0.25 0.00 94 1035.1
20260507165737 13 52 4.8 8.0 0.79 0.23 0.00 93 1035.2
20260507165237 14 321 1.6 1.6 0.71 0.18 0.00 92 1035.0
20260507164736 15 32 1.6 1.6 0.61 0.10 0.00 91 1034.7
20260507164235 15 307 1.6 3.2 0.30 0.05 0.00 89 1035.0
20260507163735 15 137 1.6 1.6 0.00 0.00 0.00 88 1034.8
20260507163234 15 39 3.2 4.8 0.00 0.00 0.00 87 1034.6
20260507162733 15 54 3.2 3.2 0.00 0.00 0.00 87 1034.9
20260507162233 16 12 3.2 3.2 0.00 0.00 0.00 85 1034.8
20260507161732 16 337 1.6 3.2 0.00 0.00 0.00 85 1034.9
20260507161231 16 103 1.6 3.2 0.00 0.00 0.00 83 1035.0
20260507160731 17 16 3.2 3.2 0.00 0.00 0.00 80 1034.7
20260507160230 18 36 3.2 4.8 0.00 0.00 0.00 74 1034.5
20260507155730 18 215 0.0 1.6 0.00 0.00 0.00 71 1034.3
20260507155229 19 13 1.6 3.2 0.00 0.00 0.00 69 1034.0
20260507154728 19 46 1.6 1.6 0.00 0.00 0.00 66 1034.2
20260507154228 20 171 0.0 0.0 0.00 0.00 0.00 65 1034.3
20260507153727 19 165 0.0 0.0 0.00 0.00 0.00 65 1034.2
20260507153226 20 160 0.0 0.0 0.00 0.00 0.00 66 1034.2
20260507152726 19 167 0.0 0.0 0.00 0.00 0.00 65 1034.2
20260507152225 19 193 0.0 0.0 0.00 0.00 0.00 66 1034.3
20260507151725 19 139 1.6 1.6 0.00 0.00 0.00 64 1034.3
20260507151224 19 173 0.0 0.0 0.00 0.00 0.00 64 1034.1
20260507150724 19 180 0.0 0.0 0.00 0.00 0.00 63 1034.2
20260507150223 20 176 0.0 0.0 0.00 0.00 0.00 64 1034.1
20260507145722 20 173 0.0 1.6 0.00 0.00 0.00 64 1034.2
20260507145222 20 147 1.6 1.6 0.00 0.00 0.00 64 1034.2
20260507144721 20 272 1.6 1.6 0.00 0.00 0.00 63 1034.1
20260507144221 21 159 1.6 3.2 0.00 0.00 0.00 58 1034.0
20260507143720 21 169 1.6 3.2 0.00 0.00 0.00 57 1033.9
20260507142719 21 265 4.8 8.0 0.00 0.00 0.00 55 1033.8
20260507142218 21 158 3.2 3.2 0.00 0.00 0.00 56 1034.0
20260507141718 21 134 4.8 4.8 0.00 0.00 0.00 57 1033.9
20260507141217 21 281 0.0 0.0 0.00 0.00 0.00 58 1033.9
20260507140716 21 109 4.8 4.8 0.00 0.00 0.00 55 1034.0
20260507140216 22 261 4.8 6.4 0.00 0.00 0.00 52 1034.0
20260507135715 22 215 8.0 9.7 0.00 0.00 0.00 50 1033.9
20260507135215 22 163 0.0 1.6 0.00 0.00 0.00 52 1034.0
20260507134714 22 197 6.4 9.7 0.00 0.00 0.00 50 1034.0
20260507134214 22 175 1.6 1.6 0.00 0.00 0.00 53 1034.1
20260507133713 21 12 3.2 4.8 0.00 0.00 0.00 57 1034.0
20260507133212 21 336 0.0 1.6 0.00 0.00 0.00 62 1034.1
20260507132712 21 146 0.0 1.6 0.00 0.00 0.00 66 1034.1
20260507132211 21 194 0.0 1.6 0.00 0.00 0.00 66 1034.3
20260507131711 20 229 1.6 1.6 0.00 0.00 0.00 63 1034.0
20260507131210 20 162 1.6 3.2 0.00 0.00 0.00 63 1034.2
20260507130709 21 191 4.8 6.4 0.00 0.00 0.00 64 1034.3
20260507130209 20 168 1.6 1.6 0.00 0.00 0.00 64 1034.2
20260507125708 21 230 3.2 3.2 0.00 0.00 0.00 65 1034.4
20260507125208 20 195 1.6 3.2 0.00 0.00 0.00 65 1034.2
20260507124707 20 176 1.6 1.6 0.00 0.00 0.00 67 1034.3
20260507124207 20 199 1.6 1.6 0.00 0.00 0.00 67 1034.5
20260507123706 20 200 1.6 1.6 0.00 0.00 0.00 67 1034.4
20260507123206 20 204 1.6 1.6 0.00 0.00 0.00 67 1034.5
20260507122706 20 185 1.6 1.6 0.00 0.00 0.00 67 1034.5
20260507122205 20 159 1.6 1.6 0.00 0.00 0.00 66 1034.3
20260507121704 20 163 1.6 1.6 0.00 0.00 0.00 68 1034.4
20260507121203 20 190 1.6 1.6 0.00 0.00 0.00 68 1034.4
20260507120703 20 183 3.2 4.8 0.00 0.00 0.00 69 1034.5
20260507120202 19 171 0.0 1.6 0.00 0.00 0.00 70 1034.8
20260507115702 20 182 1.6 1.6 0.00 0.00 0.00 72 1034.4
20260507114701 19 202 0.0 0.0 0.00 0.00 0.00 74 1034.6
20260507114200 18 186 0.0 0.0 0.00 0.00 0.00 76 1034.7
20260507113700 18 177 0.0 0.0 0.00 0.00 0.00 76 1034.6
20260507113159 17 142 1.6 1.6 0.00 0.00 0.00 81 1034.9
20260507112659 17 169 0.0 0.0 0.00 0.00 0.00 82 1034.8
20260507112158 17 25 1.6 1.6 0.00 0.00 0.00 81 1034.8
20260507111657 18 176 0.0 0.0 0.00 0.00 0.00 77 1034.8
20260507111157 18 180 0.0 0.0 0.00 0.00 0.00 76 1034.8
20260507110656 19 288 1.6 1.6 0.00 0.00 0.00 71 1034.6
20260507110156 19 173 0.0 0.0 0.00 0.00 0.00 69 1034.8
20260507105655 20 55 1.6 3.2 0.00 0.00 0.00 69 1034.5
20260507105155 20 151 1.6 1.6 0.00 0.00 0.00 68 1034.3
20260507104654 20 159 1.6 3.2 0.00 0.00 0.00 67 1034.5
20260507104154 20 175 0.0 1.6 0.00 0.00 0.00 68 1034.5
20260507103653 19 171 1.6 1.6 0.00 0.00 0.00 69 1034.5
20260507103153 19 173 1.6 1.6 0.00 0.00 0.00 69 1034.5
20260507102653 19 201 0.0 1.6 0.00 0.00 0.00 69 1034.6
20260507102152 19 204 0.0 0.0 0.00 0.00 0.00 71 1034.3
20260507101651 18 175 0.0 0.0 0.00 0.00 0.00 71 1034.6
20260507101151 18 191 1.6 1.6 0.00 0.00 0.00 72 1034.6
20260507100650 18 47 1.6 3.2 0.00 0.00 0.00 72 1034.6
20260507100150 18 220 1.6 1.6 0.00 0.00 0.00 73 1034.3
20260507095647 18 303 1.6 3.2 0.00 0.00 0.00 72 1034.6
20260507095146 18 205 4.8 6.4 0.00 0.00 0.00 72 1034.4
20260507094646 18 279 0.0 1.6 0.00 0.00 0.00 72 1034.5
20260507094145 19 38 3.2 4.8 0.00 0.00 0.00 71 1034.4
20260507093644 19 276 1.6 1.6 0.00 0.00 0.00 71 1034.6
20260507093144 19 141 1.6 3.2 0.00 0.00 0.00 70 1034.3
20260507092643 18 208 0.0 1.6 0.00 0.00 0.00 72 1034.2
20260507092143 18 166 3.2 4.8 0.00 0.00 0.00 72 1034.2
20260507091642 18 184 1.6 3.2 0.00 0.00 0.00 71 1034.0
20260507091142 18 162 3.2 3.2 0.00 0.00 0.00 72 1034.0
20260507090641 18 160 1.6 3.2 0.00 0.00 0.00 72 1034.3
20260507090141 18 64 1.6 3.2 0.00 0.00 0.00 74 1033.9
20260507085640 18 49 1.6 3.2 0.00 0.00 0.00 74 1033.9
20260507085140 18 169 1.6 1.6 0.00 0.00 0.00 74 1033.9
20260507084639 18 187 4.8 6.4 0.00 0.00 0.00 75 1033.7
20260507084139 17 215 1.6 3.2 0.00 0.00 0.00 76 1033.9
20260507083638 17 145 1.6 1.6 0.00 0.00 0.00 77 1033.9
20260507083138 18 209 1.6 3.2 0.00 0.00 0.00 76 1033.7
20260507082637 17 146 3.2 4.8 0.00 0.00 0.00 78 1033.7
20260507082136 17 206 1.6 3.2 0.00 0.00 0.00 78 1033.5
20260507081636 17 233 8.0 11.3 0.00 0.00 0.00 78 1033.5
20260507081137 17 176 1.6 1.6 0.00 0.00 0.00 78 1033.6
20260507080626 17 169 0.0 0.0 0.00 0.00 0.00 79 1033.6
20260507080125 17 198 1.6 4.8 0.00 0.00 0.00 79 1033.5
20260507075625 17 182 3.2 3.2 0.00 0.00 0.00 80 1033.6
20260507075124 17 186 1.6 3.2 0.00 0.00 0.00 79 1033.4
20260507074624 17 159 4.8 6.4 0.00 0.00 0.00 79 1033.3
20260507074123 17 152 3.2 4.8 0.00 0.00 0.00 78 1033.2
20260507073623 17 162 1.6 1.6 0.00 0.00 0.00 79 1033.1
20260507073122 16 162 3.2 4.8 0.00 0.00 0.00 79 1033.0
20260507072621 16 176 1.6 1.6 0.00 0.00 0.00 79 1032.8
20260507072121 16 152 3.2 4.8 0.00 0.00 0.00 79 1033.0
20260507071620 16 171 3.2 6.4 0.00 0.00 0.00 80 1033.0
20260507071120 16 160 6.4 8.0 0.00 0.00 0.00 80 1032.8
20260507070619 16 142 3.2 6.4 0.00 0.00 0.00 80 1032.6
20260507070118 16 165 4.8 9.7 0.00 0.00 0.00 80 1033.0
20260507065618 16 153 8.0 11.3 0.00 0.00 0.00 80 1032.6
20260507065117 16 167 1.6 3.2 0.00 0.00 0.00 80 1032.7
20260507064617 16 155 6.4 9.7 0.00 0.00 0.00 79 1032.7
20260507064116 16 171 4.8 6.4 0.00 0.00 0.00 79 1032.6
20260507063616 16 175 4.8 6.4 0.00 0.00 0.00 79 1032.4
20260507063115 16 158 3.2 4.8 0.00 0.00 0.00 80 1032.4
20260507062615 16 172 8.0 11.3 0.00 0.00 0.00 79 1032.7
20260507062114 16 170 4.8 8.0 0.00 0.00 0.00 79 1032.6
20260507061613 16 179 4.8 8.0 0.00 0.00 0.00 79 1032.4
20260507061113 16 182 4.8 8.0 0.00 0.00 0.00 80 1032.5
20260507060612 16 176 1.6 3.2 0.00 0.00 0.00 80 1032.4
20260507060112 16 176 6.4 9.7 0.00 0.00 0.00 81 1032.2
20260507055611 15 177 3.2 4.8 0.00 0.00 0.00 81 1032.4
20260507055111 15 168 1.6 3.2 0.00 0.00 0.00 82 1032.0
20260507054610 15 166 3.2 3.2 0.00 0.00 0.00 82 1032.2
20260507054110 15 175 1.6 3.2 0.00 0.00 0.00 83 1031.9
20260507053609 15 169 1.6 3.2 0.00 0.00 0.00 83 1032.1
20260507053109 15 175 3.2 3.2 0.00 0.00 0.00 83 1032.0
20260507052608 15 177 3.2 4.8 0.00 0.00 0.00 83 1032.0
20260507052108 15 167 3.2 4.8 0.00 0.00 0.00 83 1031.7
20260507051607 15 173 1.6 1.6 0.00 0.00 0.00 83 1032.0
20260507051106 15 169 0.0 1.6 0.00 0.00 0.00 83 1032.0
20260507050606 15 167 1.6 3.2 0.00 0.00 0.00 82 1031.4
20260507050105 15 163 3.2 4.8 0.00 0.00 0.00 82 1031.8
20260507045605 15 168 0.0 0.0 0.00 0.00 0.00 82 1031.8
20260507045105 15 171 3.2 3.2 0.00 0.00 0.00 82 1031.9
20260507044604 15 169 1.6 3.2 0.00 0.00 0.00 82 1031.6